Flag for U.S.A. Weather past 2 weeks in Columbus, Georgia, U.S.A.

Now
68 °F

Clear.


Feels Like: 68 °F
Forecast: 65 / 92 °F
Wind: No wind

Location: Columbus Metropolitan Airport

Current Time: Aug 29, 2014 at 8:50:44 AM

Latest Report: Aug 29, 2014 at 7:51 AM


Visibility: 10 mi

Pressure: 30.03 "Hg

Humidity: 78%

Dew point: 61 °F

Location of ColumbusLocation

Historic Weather in Columbus — Graph

°F

Columbus temperature yesterday

Maximum temperature yesterday: 94 °F (at 3:51 PM)
Minimum temperature yesterday: 67 °F (at 5:51 AM)
Average temperature yesterday: 81 °F

Past Weeks' High & Low Weather Summary

 TemperatureHumidityPressure
High97 °F (Aug 22, 4:51 PM)97% (Aug 18, 2:51 AM)30.13 "Hg (Aug 18, 2:51 AM)
Low65 °F (Aug 15, 4:51 AM)20% (Aug 28, 3:51 PM)29.85 "Hg (Aug 24, 5:51 PM)
Average80 °F65%29.99 "Hg
* Reported Aug 14 7:51 AM — Aug 29 7:51 AM, Columbus, Weather by CustomWeather, © 2014

Note: Actual official high and low records may vary slightly from our data, if they occured in-between our weather recording intervals... More about our weather records

Advertising

Columbus weather history for previous 24 hours

 ConditionsComfort  
Time TempWeatherWind HumidityBarometerVisibility
7:51 AM
Aug 29
68 °FClear.No wind78%30.03 "Hg10 mi
6:51 AM66 °FClear.No wind84%30.02 "Hg10 mi
5:51 AM68 °FClear.3 mph82%30.01 "Hg10 mi
4:51 AM69 °FClear.No wind81%30.00 "Hg10 mi
3:51 AM69 °FClear.No wind81%29.99 "Hg10 mi
2:51 AM71 °FClear.No wind76%29.98 "Hg10 mi
1:51 AM73 °FClear.No wind69%30.00 "Hg10 mi
12:51 AM75 °FClear.No wind62%30.00 "Hg10 mi
11:51 PM
Aug 28
78 °FClear.No wind56%29.99 "Hg10 mi
10:51 PM76 °FClear.6 mph60%29.98 "Hg10 mi
9:51 PM82 °FClear.No wind44%29.96 "Hg10 mi
8:51 PM84 °FSunny.No wind40%29.94 "Hg10 mi
7:51 PM89 °FSunny.5 mph30%29.93 "Hg10 mi
6:51 PM92 °FSunny.7 mph25%29.93 "Hg10 mi
5:51 PM93 °FSunny.No wind21%29.93 "Hg10 mi
4:51 PM93 °FSunny.3 mph20%29.95 "Hg10 mi
3:51 PM94 °FSunny.3 mph20%29.96 "Hg10 mi
2:51 PM93 °FSunny.10 mph25%29.98 "Hg10 mi
1:51 PM90 °FSunny.5 mph31%30.00 "Hg10 mi
12:51 PM89 °FSunny.3 mph31%30.01 "Hg10 mi
11:51 AM89 °FSunny.5 mph34%30.03 "Hg10 mi
10:51 AM85 °FSunny.3 mph43%30.04 "Hg10 mi
9:51 AM80 °FSunny.No wind54%30.03 "Hg10 mi
8:51 AM75 °FSunny.No wind64%30.03 "Hg10 mi
Weather by CustomWeather, © 2014

See weather overviewHow to use our weather pages